Time,TemperatureF,DewpointF,PressureIn,WindDirection,WindDirectionDegrees,WindSpeedMPH,WindSpeedGustMPH,Humidity,HourlyPrecipIn,Conditions,Clouds,dailyrainin,SoftwareType,DateUTC
2013-10-24 00:15:00,33.0,33.0,29.93,WSW,255,2.0,0.0,100,0.03,,,-99.99,,2013-10-24 04:15:00,
2013-10-24 00:24:00,33.0,33.0,29.92,WSW,255,0.0,0.0,100,0.03,,,-99.99,,2013-10-24 04:24:00,
2013-10-24 00:44:00,34.0,34.0,29.92,WNW,285,0.0,0.0,100,0.03,,,-99.99,,2013-10-24 04:44:00,
2013-10-24 00:54:00,34.0,34.0,29.93,NNE,28,7.0,0.0,100,0.03,,,-99.99,,2013-10-24 04:54:00,
2013-10-24 01:13:00,33.0,33.0,29.93,North,10,0.0,0.0,100,0.03,,,-99.99,,2013-10-24 05:13:00,
2013-10-24 01:22:00,33.0,33.0,29.93,North,10,0.0,0.0,100,0.03,,,-99.99,,2013-10-24 05:22:00,
2013-10-24 01:43:00,32.0,32.0,29.92,North,10,0.0,0.0,100,0.03,,,-99.99,,2013-10-24 05:43:00,
2013-10-24 01:53:00,32.0,32.0,29.92,North,10,0.0,0.0,100,0.03,,,-99.99,,2013-10-24 05:53:00,
2013-10-24 02:12:00,32.0,32.0,29.93,North,10,0.0,0.0,100,0.03,,,-99.99,,2013-10-24 06:12:00,
2013-10-24 02:22:00,31.0,31.0,29.93,North,10,0.0,0.0,100,0.03,,,-99.99,,2013-10-24 06:22:00,
2013-10-24 02:42:00,31.0,31.0,29.94,North,10,0.0,0.0,100,0.03,,,-99.99,,2013-10-24 06:42:00,
2013-10-24 02:52:00,32.0,32.0,29.94,North,10,0.0,0.0,100,0.03,,,-99.99,,2013-10-24 06:52:00,
2013-10-24 03:12:00,33.0,33.0,29.93,North,10,0.0,0.0,100,0.03,,,-99.99,,2013-10-24 07:12:00,
2013-10-24 03:22:00,33.0,33.0,29.93,North,10,0.0,0.0,100,0.03,,,-99.99,,2013-10-24 07:22:00,
2013-10-24 03:42:00,33.0,33.0,29.93,NNE,18,0.0,0.0,100,0.03,,,-99.99,,2013-10-24 07:42:00,
2013-10-24 03:52:00,32.0,32.0,29.93,NNE,18,0.0,0.0,100,0.03,,,-99.99,,2013-10-24 07:52:00,
2013-10-24 04:12:00,32.0,32.0,29.93,NNE,18,0.0,0.0,100,0.03,,,-99.99,,2013-10-24 08:12:00,
2013-10-24 04:22:00,31.0,31.0,29.93,NNE,18,0.0,0.0,100,0.03,,,-99.99,,2013-10-24 08:22:00,
2013-10-24 04:42:00,32.0,32.0,29.93,NNE,18,0.0,0.0,100,0.03,,,-99.99,,2013-10-24 08:42:00,
2013-10-24 04:53:00,32.0,32.0,29.94,North,353,4.0,0.0,100,0.03,,,-99.99,,2013-10-24 08:53:00,
2013-10-24 05:12:00,33.0,33.0,29.94,SSW,204,3.0,0.0,100,0.03,,,-99.99,,2013-10-24 09:12:00,
2013-10-24 05:22:00,33.0,33.0,29.94,SSW,204,0.0,0.0,100,0.03,,,-99.99,,2013-10-24 09:22:00,
2013-10-24 05:43:00,33.0,33.0,29.94,SSW,204,0.0,0.0,100,0.03,,,-99.99,,2013-10-24 09:43:00,
2013-10-24 05:53:00,34.0,34.0,29.95,SSW,204,0.0,0.0,100,0.03,,,-99.99,,2013-10-24 09:53:00,
2013-10-24 06:13:00,34.0,34.0,29.96,SSW,204,0.0,0.0,100,0.03,,,-99.99,,2013-10-24 10:13:00,
2013-10-24 06:23:00,34.0,34.0,29.96,SSW,204,0.0,0.0,100,0.03,,,-99.99,,2013-10-24 10:23:00,
2013-10-24 06:43:00,34.0,34.0,29.96,North,10,5.0,0.0,100,0.03,,,-99.99,,2013-10-24 10:43:00,
2013-10-24 06:53:00,34.0,34.0,29.96,North,10,0.0,0.0,100,0.03,,,-99.99,,2013-10-24 10:53:00,
2013-10-24 07:12:00,34.0,34.0,29.97,North,10,0.0,0.0,100,0.03,,,-99.99,,2013-10-24 11:12:00,
2013-10-24 07:22:00,33.0,33.0,29.97,North,10,0.0,0.0,100,0.03,,,-99.99,,2013-10-24 11:22:00,
2013-10-24 07:42:00,33.0,33.0,29.97,North,10,0.0,0.0,100,0.03,,,-99.99,,2013-10-24 11:42:00,
2013-10-24 07:53:00,33.0,33.0,29.97,North,10,0.0,0.0,100,0.03,,,-99.99,,2013-10-24 11:53:00,
2013-10-24 08:12:00,33.0,33.0,29.97,North,10,0.0,0.0,100,0.03,,,-99.99,,2013-10-24 12:12:00,
2013-10-24 08:22:00,32.0,32.0,29.98,West,267,5.0,0.0,100,0.03,,,-99.99,,2013-10-24 12:22:00,
2013-10-24 08:42:00,32.0,32.0,29.98,SW,235,2.0,0.0,100,0.03,,,-99.99,,2013-10-24 12:42:00,
2013-10-24 08:52:00,32.0,32.0,29.99,WSW,250,2.0,0.0,100,0.03,,,-99.99,,2013-10-24 12:52:00,
2013-10-24 09:12:00,32.0,32.0,30.00,West,266,0.0,0.0,100,0.03,,,-99.99,,2013-10-24 13:12:00,
2013-10-24 09:22:00,33.0,33.0,30.00,West,266,0.0,0.0,100,0.03,,,-99.99,,2013-10-24 13:22:00,
2013-10-24 09:42:00,33.0,33.0,30.01,WNW,300,3.0,0.0,100,0.03,,,-99.99,,2013-10-24 13:42:00,
2013-10-24 09:52:00,34.0,34.0,30.01,NW,315,3.0,0.0,100,0.03,,,-99.99,,2013-10-24 13:52:00,
2013-10-24 10:11:00,35.0,35.0,30.01,West,278,4.0,0.0,100,0.03,,,-99.99,,2013-10-24 14:11:00,
2013-10-24 10:22:00,35.0,35.0,30.01,NNW,332,5.0,0.0,100,0.03,,,-99.99,,2013-10-24 14:22:00,
2013-10-24 10:42:00,37.0,37.0,30.01,NNW,333,3.0,0.0,100,0.03,,,-99.99,,2013-10-24 14:42:00,
2013-10-24 10:52:00,39.0,39.0,30.01,NNW,340,9.0,0.0,100,0.03,,,-99.99,,2013-10-24 14:52:00,
2013-10-24 11:11:00,41.0,40.0,30.02,NW,321,8.0,0.0,95,0.03,,,-99.99,,2013-10-24 15:11:00,
2013-10-24 11:21:00,41.0,38.0,30.02,NW,323,11.0,0.0,88,0.03,,,-99.99,,2013-10-24 15:21:00,
2013-10-24 11:43:00,41.0,36.0,30.02,North,1,15.0,0.0,81,0.03,,,-99.99,,2013-10-24 15:43:00,
2013-10-24 11:53:00,41.0,36.0,30.03,NW,319,14.0,0.0,82,0.03,,,-99.99,,2013-10-24 15:53:00,
2013-10-24 12:13:00,41.0,37.0,30.04,NNW,328,13.0,0.0,85,0.03,,,-99.99,,2013-10-24 16:13:00,
2013-10-24 12:23:00,41.0,37.0,30.04,NW,318,15.0,0.0,84,0.03,,,-99.99,,2013-10-24 16:23:00,
2013-10-24 12:42:00,41.0,37.0,30.05,NNW,340,14.0,0.0,86,0.03,,,-99.99,,2013-10-24 16:42:00,
2013-10-24 12:53:00,41.0,37.0,30.05,NW,326,13.0,0.0,85,0.03,,,-99.99,,2013-10-24 16:53:00,
2013-10-24 13:12:00,41.0,37.0,30.06,NNW,332,8.0,0.0,85,0.03,,,-99.99,,2013-10-24 17:12:00,
2013-10-24 13:22:00,41.0,37.0,30.06,NNW,339,7.0,0.0,85,0.03,,,-99.99,,2013-10-24 17:22:00,
2013-10-24 13:43:00,42.0,38.0,30.06,NW,323,7.0,0.0,84,0.03,,,-99.99,,2013-10-24 17:43:00,
2013-10-24 13:52:00,42.0,37.0,30.05,NW,314,8.0,0.0,83,0.03,,,-99.99,,2013-10-24 17:52:00,
2013-10-24 14:12:00,43.0,38.0,30.05,WNW,295,8.0,0.0,83,0.03,,,-99.99,,2013-10-24 18:12:00,
2013-10-24 14:23:00,43.0,38.0,30.05,SW,235,7.0,0.0,82,0.03,,,-99.99,,2013-10-24 18:23:00,
2013-10-24 14:42:00,42.0,38.0,30.06,NW,316,20.0,0.0,86,0.03,,,-99.99,,2013-10-24 18:42:00,
2013-10-24 14:53:00,37.0,37.0,30.07,NW,322,13.0,0.0,100,0.03,,,-99.99,,2013-10-24 18:53:00,
2013-10-24 15:12:00,37.0,37.0,30.08,NNW,345,7.0,0.0,100,0.03,,,-99.99,,2013-10-24 19:12:00,
2013-10-24 15:22:00,37.0,37.0,30.08,West,267,6.0,0.0,100,0.03,,,-99.99,,2013-10-24 19:22:00,
2013-10-24 15:43:00,38.0,38.0,30.08,NNW,330,9.0,0.0,100,0.03,,,-99.99,,2013-10-24 19:43:00,
2013-10-24 15:53:00,39.0,39.0,30.07,NNW,328,6.0,0.0,100,0.03,,,-99.99,,2013-10-24 19:53:00,
2013-10-24 16:12:00,40.0,40.0,30.08,NNW,335,7.0,0.0,100,0.03,,,-99.99,,2013-10-24 20:12:00,
2013-10-24 16:23:00,40.0,40.0,30.08,NNW,335,7.0,0.0,100,0.03,,,-99.99,,2013-10-24 20:23:00,
2013-10-24 16:43:00,42.0,41.0,30.08,NNW,345,11.0,0.0,95,0.03,,,-99.99,,2013-10-24 20:43:00,
2013-10-24 16:53:00,41.0,39.0,30.09,North,356,8.0,0.0,94,0.03,,,-99.99,,2013-10-24 20:53:00,
2013-10-24 17:12:00,41.0,38.0,30.09,NW,321,10.0,0.0,89,0.03,,,-99.99,,2013-10-24 21:12:00,
2013-10-24 17:22:00,41.0,38.0,30.10,NNW,343,11.0,0.0,89,0.03,,,-99.99,,2013-10-24 21:22:00,
2013-10-24 17:43:00,41.0,39.0,30.10,NE,48,5.0,0.0,92,0.03,,,-99.99,,2013-10-24 21:43:00,
2013-10-24 17:54:00,41.0,39.0,30.10,NW,315,9.0,0.0,91,0.03,,,-99.99,,2013-10-24 21:54:00,
2013-10-24 18:14:00,42.0,35.0,30.11,NW,316,12.0,0.0,76,0.03,,,-99.99,,2013-10-24 22:14:00,
2013-10-24 18:24:00,42.0,36.0,30.11,NNW,336,7.0,0.0,78,0.03,,,-99.99,,2013-10-24 22:24:00,
2013-10-24 18:43:00,42.0,35.0,30.11,NNW,340,8.0,0.0,77,0.03,,,-99.99,,2013-10-24 22:43:00,
2013-10-24 18:54:00,41.0,35.0,30.12,NNW,342,4.0,0.0,79,0.03,,,-99.99,,2013-10-24 22:54:00,
2013-10-24 19:13:00,40.0,35.0,30.13,North,356,1.0,0.0,81,0.03,,,-99.99,,2013-10-24 23:13:00,
2013-10-24 19:22:00,39.0,34.0,30.13,West,281,1.0,0.0,82,0.03,,,-99.99,,2013-10-24 23:22:00,
2013-10-24 19:43:00,39.0,35.0,30.13,West,281,0.0,0.0,84,0.03,,,-99.99,,2013-10-24 23:43:00,
2013-10-24 19:53:00,38.0,34.0,30.14,NNW,338,0.0,0.0,87,0.03,,,-99.99,,2013-10-24 23:53:00,
2013-10-24 20:12:00,37.0,34.0,30.14,NNW,338,0.0,0.0,88,0.03,,,-99.99,,2013-10-25 00:12:00,
2013-10-24 20:22:00,37.0,34.0,30.14,NNW,338,0.0,0.0,89,0.03,,,-99.99,,2013-10-25 00:22:00,
2013-10-24 20:42:00,36.0,34.0,30.14,NNW,338,0.0,0.0,91,0.03,,,-99.99,,2013-10-25 00:42:00,
2013-10-24 20:52:00,35.0,34.0,30.15,NNW,338,0.0,0.0,95,0.03,,,-99.99,,2013-10-25 00:52:00,
2013-10-24 21:12:00,35.0,34.0,30.16,NNW,338,3.0,0.0,95,0.03,,,-99.99,,2013-10-25 01:12:00,
2013-10-24 21:22:00,37.0,35.0,30.16,NNW,329,11.0,0.0,94,0.03,,,-99.99,,2013-10-25 01:22:00,
2013-10-24 21:43:00,37.0,35.0,30.17,North,349,7.0,0.0,94,0.03,,,-99.99,,2013-10-25 01:43:00,
2013-10-24 21:54:00,36.0,35.0,30.17,NW,325,13.0,0.0,97,0.03,,,-99.99,,2013-10-25 01:54:00,
2013-10-24 22:12:00,37.0,36.0,30.17,NNW,330,10.0,0.0,98,0.03,,,-99.99,,2013-10-25 02:12:00,
2013-10-24 22:23:00,36.0,35.0,30.16,NNW,333,7.0,0.0,98,0.03,,,-99.99,,2013-10-25 02:23:00,
2013-10-24 22:43:00,36.0,36.0,30.16,NNW,346,0.0,0.0,99,0.03,,,-99.99,,2013-10-25 02:43:00,
2013-10-24 22:52:00,36.0,36.0,30.16,NNW,346,0.0,0.0,99,0.03,,,-99.99,,2013-10-25 02:52:00,
2013-10-24 23:12:00,36.0,36.0,30.17,South,184,4.0,0.0,99,0.03,,,-99.99,,2013-10-25 03:12:00,
2013-10-24 23:23:00,35.0,35.0,30.17,SW,231,4.0,0.0,100,0.03,,,-99.99,,2013-10-25 03:23:00,
2013-10-24 23:44:00,36.0,36.0,30.18,SSW,204,2.0,0.0,100,0.03,,,-99.99,,2013-10-25 03:44:00,
2013-10-24 23:54:00,35.0,35.0,30.19,WSW,246,2.0,0.0,100,0.03,,,-99.99,,2013-10-25 03:54:00,